MOLNIYA 1-49

Last updated on Jan. 25, 2020, 4:43 a.m. UTC

1 12156U 81009A   20023.68625301 -.00000623  00000-0  21541-2 0  9998
2 12156  62.3467 296.0080 7245298 250.7739  23.3928  2.05703213203476
UTC
Height (km)
Latitude
Longitude
Inclination
Orbital Period
UTC large
Height (km)
Speed (km/s)
/
Latitude / Longitude
Inclination (degrees)
Orbital Period (minutes)
Azimuth
Elevation
Range (km)
Doppler Factor
iOS Compass Heading
iOS Angle

Next 30 passes for location: Hong Kong

Rise time Rise Azimuth (degrees) Set time Set Azimuth (degrees) Duration Max altitude (degrees)

No matching passes for this satellites